Tracy, MN

8:00 AM CDT on September 24, 2017 (GMT -0500)
Tracy

Weather History for KTKC - February, 2014

Change the Weather History Date:

Sunday, February 16, 2014

  Actual Average (KMML) Record (KMML)
Temperature  
Mean Temperature 14 °F -  
Max Temperature 23 °F 25 °F 64 °F (1981)
Min Temperature 6 °F 7 °F -25 °F (1979)
Degree Days  
Heating Degree Days 51    
Moisture  
Dew Point 9 °F    
Average Humidity 81    
Maximum Humidity 84    
Minimum Humidity 76    
Precipitation  
Precipitation 0.00 in - - ()
Sea Level Pressure  
Sea Level Pressure 30.02 in    
Wind  
Wind Speed 13 mph (SE)    
Max Wind Speed 28 mph    
Max Gust Speed 36 mph    
Visibility 9 miles    
Events Snow    
Averages and records for this station are not official NWS values.
T = Trace of Precipitation, MM = Missing Value Source: NWS Daily Summary

Daily Weather History Graph

Daily Weather History Graph

Search for Another Location

Airport or City:

Trip Planner

Search our weather history database for the weather conditions in past years. The results will help you decide how hot, cold, wet, or windy it might be!

Date:

Astronomy

Feb. 16, 2014 Rise Set
Actual Time 7:20 AM CST 5:53 PM CST
Civil Twilight 6:50 AM CST 6:22 PM CST
Nautical Twilight 6:16 AM CST 6:56 PM CST
Astronomical Twilight 5:43 AM CST 7:30 PM CST
Moon 7:57 PM CST (2/16) 7:45 AM CST (2/16)
Length of Visible Light 11h 32m
Length of Day
10h 32m
Full, 97% of the Moon is Illuminated
Feb 16
Full
Feb 22
Last Quarter
Mar 1
New
Mar 8
First Quarter
Mar 16
Full

Hourly Weather History & Observations

Time (CST) Temp. Windchill Dew Point Humidity Pressure Visibility Wind Dir Wind Speed Gust Speed Precip Events Conditions
12:18 AM 8.4 °F -9.7 °F 3.7 °F 81% 30.08 in 10.0 mi NNW 17.3 mph 21.9 mph N/A   Overcast
12:37 AM 8.2 °F -6.8 °F 3.6 °F 81% 30.08 in 10.0 mi NW 11.5 mph - N/A   Overcast
12:58 AM 8.2 °F -8.8 °F 3.7 °F 82% 30.10 in 10.0 mi NW 15.0 mph - N/A Snow Light Snow
1:17 AM 7.7 °F -9.5 °F 3.0 °F 81% 30.10 in 10.0 mi NW 15.0 mph - N/A Snow Light Snow
1:37 AM 7.5 °F -8.4 °F 2.8 °F 81% 30.10 in 10.0 mi NNW 12.7 mph 21.9 mph N/A Snow Light Snow
1:57 AM 7.5 °F -9.1 °F 3.0 °F 82% 30.11 in 10.0 mi NW 13.8 mph - N/A   Overcast
2:17 AM 7.2 °F -9.6 °F 3.0 °F 83% 30.11 in 10.0 mi NW 13.8 mph - N/A   Overcast
2:37 AM 7.3 °F -9.3 °F 3.2 °F 83% 30.11 in 10.0 mi NW 13.8 mph - N/A Snow Light Snow
2:57 AM 7.5 °F -7.7 °F 3.4 °F 83% 30.12 in 7.0 mi NW 11.5 mph - N/A Snow Light Snow
3:18 AM 7.3 °F -7.1 °F 3.2 °F 83% 30.12 in 7.0 mi NNW 10.4 mph - N/A Snow Light Snow
3:37 AM 7.2 °F -6.4 °F 3.0 °F 83% 30.12 in 10.0 mi NNW 9.2 mph - N/A Snow Light Snow
3:58 AM 7.2 °F -6.4 °F 3.0 °F 83% 30.11 in 10.0 mi NNW 9.2 mph - N/A Snow Light Snow
4:17 AM 7.0 °F -5.7 °F 2.8 °F 83% 30.11 in 10.0 mi NNW 8.1 mph - N/A Snow Light Snow
4:38 AM 6.8 °F -4.8 °F 2.8 °F 84% 30.11 in 10.0 mi NNW 6.9 mph - N/A   Overcast
4:58 AM 6.8 °F -5.9 °F 2.7 °F 83% 30.11 in 10.0 mi North 8.1 mph - N/A   Overcast
5:18 AM 6.8 °F -4.8 °F 2.3 °F 82% 30.12 in 10.0 mi NNW 6.9 mph - N/A Snow Light Snow
5:38 AM 6.8 °F - 2.7 °F 83% 30.12 in 7.0 mi Calm Calm - N/A Snow Light Snow
5:57 AM 6.6 °F - 2.3 °F 82% 30.14 in 5.0 mi Calm Calm - N/A Snow Light Snow
6:17 AM 6.8 °F - 2.3 °F 82% 30.14 in 7.0 mi Calm Calm - N/A Snow Light Snow
6:37 AM 6.8 °F - 2.3 °F 82% 30.15 in 7.0 mi Calm Calm - N/A Snow Light Snow
6:58 AM 7.2 °F - 2.7 °F 82% 30.16 in 7.0 mi Calm Calm - N/A Snow Light Snow
7:17 AM 7.5 °F - 3.0 °F 82% 30.17 in 7.0 mi Calm Calm - N/A Snow Light Snow
7:37 AM 7.7 °F - 3.2 °F 82% 30.18 in 4.0 mi Calm Calm - N/A Snow Light Snow
7:57 AM 8.2 °F - 3.4 °F 81% 30.18 in 3.0 mi Calm Calm - N/A Snow Light Snow
8:17 AM 8.6 °F - 3.9 °F 81% 30.19 in 1.8 mi Calm Calm - N/A Snow Light Snow
8:38 AM 8.6 °F - 3.9 °F 81% 30.18 in 1.5 mi Calm Calm - N/A Snow Light Snow
8:57 AM 9.7 °F - 4.6 °F 80% 30.17 in 2.5 mi Calm Calm - N/A Snow Light Snow
9:18 AM 9.9 °F - 4.5 °F 79% 30.16 in 7.0 mi Calm Calm - N/A Snow Light Snow
9:37 AM 10.2 °F -1.7 °F 5.0 °F 79% 30.14 in 10.0 mi East 8.1 mph - N/A   Clear
9:57 AM 10.4 °F -1.5 °F 5.0 °F 79% 30.13 in 10.0 mi East 8.1 mph - N/A   Clear
10:18 AM 11.5 °F -0.2 °F 6.3 °F 80% 30.13 in 10.0 mi ESE 8.1 mph - N/A   Clear
10:37 AM 12.9 °F 0.7 °F 7.2 °F 78% 30.13 in 10.0 mi ESE 9.2 mph - N/A   Clear
10:57 AM 14.0 °F 1.2 °F 8.4 °F 78% 30.11 in 10.0 mi SE 10.4 mph - N/A   Clear
11:17 AM 14.0 °F -0.2 °F 8.8 °F 80% 30.10 in 10.0 mi ESE 12.7 mph - N/A   Clear
11:38 AM 14.9 °F 0.9 °F 9.7 °F 80% 30.08 in 10.0 mi ESE 12.7 mph - N/A   Scattered Clouds
11:57 AM 16.0 °F 1.7 °F 10.9 °F 81% 30.09 in 10.0 mi SE 13.8 mph - N/A   Mostly Cloudy
12:17 PM 16.7 °F 1.5 °F 11.1 °F 79% 30.08 in 10.0 mi SSE 16.1 mph - N/A   Mostly Cloudy
12:37 PM 16.7 °F 2.0 °F 11.3 °F 79% 30.07 in 10.0 mi SSE 15.0 mph - N/A   Mostly Cloudy
12:57 PM 17.2 °F 1.7 °F 11.3 °F 78% 30.05 in 10.0 mi SE 17.3 mph 21.9 mph N/A   Scattered Clouds
1:17 PM 17.6 °F 2.7 °F 11.7 °F 78% 30.04 in 10.0 mi SSE 16.1 mph 21.9 mph N/A   Mostly Cloudy
1:37 PM 18.0 °F 2.2 °F 12.4 °F 79% 30.02 in 10.0 mi SE 18.4 mph 24.2 mph N/A   Mostly Cloudy
1:57 PM 19.0 °F 3.2 °F 13.1 °F 78% 30.01 in 10.0 mi SSE 19.6 mph 25.3 mph N/A   Mostly Cloudy
2:18 PM 19.2 °F 5.8 °F 12.9 °F 76% 30.00 in 10.0 mi SSE 13.8 mph 23.0 mph N/A   Overcast
2:37 PM 19.4 °F 3.6 °F 13.5 °F 78% 29.99 in 10.0 mi SSE 19.6 mph 23.0 mph N/A   Overcast
2:57 PM 19.4 °F 6.0 °F 13.6 °F 78% 29.99 in 10.0 mi SSE 13.8 mph - N/A   Overcast
3:17 PM 19.4 °F 3.6 °F 13.6 °F 78% 29.97 in 10.0 mi SSE 19.6 mph 24.2 mph N/A   Overcast
3:37 PM 20.1 °F 5.0 °F 14.0 °F 77% 29.96 in 10.0 mi SSE 18.4 mph 25.3 mph N/A   Mostly Cloudy
3:58 PM 20.1 °F 4.6 °F 14.0 °F 77% 29.96 in 10.0 mi SE 19.6 mph 24.2 mph N/A   Clear
4:17 PM 19.9 °F 3.5 °F 14.0 °F 78% 29.95 in 10.0 mi SE 21.9 mph 25.3 mph N/A   Scattered Clouds
4:38 PM 20.1 °F 3.8 °F 14.4 °F 78% 29.94 in 10.0 mi SE 21.9 mph 25.3 mph N/A   Scattered Clouds
4:58 PM 20.1 °F 4.2 °F 14.4 °F 78% 29.94 in 10.0 mi SSE 20.7 mph 25.3 mph N/A   Mostly Cloudy
5:18 PM 20.3 °F 4.8 °F 14.5 °F 78% 29.92 in 10.0 mi SE 19.6 mph 26.5 mph N/A   Mostly Cloudy
5:38 PM 20.1 °F 5.0 °F 14.5 °F 79% 29.92 in 10.0 mi SSE 18.4 mph 24.2 mph N/A   Overcast
5:57 PM 20.1 °F 4.6 °F 14.4 °F 78% 29.91 in 10.0 mi SSE 19.6 mph 25.3 mph N/A   Overcast
6:17 PM 20.1 °F 4.2 °F 14.9 °F 80% 29.90 in 10.0 mi SSE 20.7 mph 27.6 mph N/A   Overcast
6:38 PM 20.1 °F 4.2 °F 14.9 °F 80% 29.89 in 10.0 mi SSE 20.7 mph 26.5 mph N/A   Mostly Cloudy
6:58 PM 20.3 °F 4.4 °F 15.1 °F 80% 29.89 in 10.0 mi SE 20.7 mph 27.6 mph N/A   Scattered Clouds
7:17 PM 20.3 °F 4.4 °F 15.3 °F 81% 29.88 in 10.0 mi SSE 20.7 mph 26.5 mph N/A   Clear
7:38 PM 20.3 °F 4.4 °F 15.4 °F 81% 29.86 in 10.0 mi SSE 20.7 mph 28.8 mph N/A   Clear
7:57 PM 20.7 °F 5.7 °F 15.6 °F 81% 29.87 in 10.0 mi SSE 18.4 mph 32.2 mph N/A   Clear
8:17 PM 20.7 °F 4.1 °F 15.6 °F 81% 29.85 in 10.0 mi SSE 23.0 mph 31.1 mph N/A   Clear
8:37 PM 20.8 °F 5.1 °F 15.8 °F 81% 29.84 in 10.0 mi SSE 20.7 mph 31.1 mph N/A   Clear
8:58 PM 20.7 °F 4.9 °F 15.8 °F 81% 29.83 in 10.0 mi SSE 20.7 mph 29.9 mph N/A   Clear
9:18 PM 20.8 °F 4.4 °F 16.2 °F 82% 29.82 in 10.0 mi SSE 23.0 mph 29.9 mph N/A   Scattered Clouds
9:37 PM 21.0 °F 5.7 °F 16.3 °F 82% 29.81 in 10.0 mi SSE 19.6 mph 32.2 mph N/A   Clear
9:57 PM 21.2 °F 5.6 °F 16.7 °F 83% 29.80 in 10.0 mi SSE 20.7 mph 29.9 mph N/A   Clear
10:17 PM 21.7 °F 5.6 °F 17.1 °F 82% 29.79 in 10.0 mi SSE 23.0 mph 28.8 mph N/A   Mostly Cloudy
10:38 PM 21.9 °F 5.8 °F 17.1 °F 82% 29.77 in 10.0 mi SSE 23.0 mph 33.4 mph N/A   Overcast
10:57 PM 22.1 °F 6.0 °F 17.4 °F 82% 29.77 in 10.0 mi SSE 23.0 mph 33.4 mph N/A   Overcast
11:17 PM 22.5 °F 6.9 °F 17.6 °F 82% 29.76 in 10.0 mi South 21.9 mph 31.1 mph N/A   Overcast
11:38 PM 22.8 °F 5.7 °F 18.0 °F 82% 29.75 in 10.0 mi SSE 27.6 mph 35.7 mph N/A   Overcast
11:57 PM 23.0 °F 6.3 °F 18.1 °F 82% 29.73 in 10.0 mi South 26.5 mph 33.4 mph N/A   Overcast